Preview of NWS' New Version of Forecast
This preview is not operational and should not be used for support decisions.

Regional Weather Roundup (RWR)

Issued by National Weather Service (NWS)

                            
000
ASUS42 KTBW 182016
RWRFL 
FLORIDA REGIONAL WEATHER ROUNDUP
NATIONAL WEATHER SERVICE TAMPA BAY RUSKIN FL
400 PM EDT THU APR 18 2019

NOTE: "FAIR" INDICATES FEW OR NO CLOUDS BELOW 12,000 FEET WITH NO
SIGNIFICANT WEATHER AND/OR OBSTRUCTIONS TO VISIBILITY.

FLZ001>010-012>015-112-114-115-182100-
PANHANDLE FLORIDA
  
CITY           SKY/WX    TMP DP  RH WIND       PRES   REMARKS
PENSACOLA      CLOUDY    75  70  84 SE21G28   29.82F                  
PENSACOLA NAS  CLOUDY    74  70  87 E18G24    29.81F                  
MILTON NAS     PTSUNNY   75  67  76 SE14      29.82F                  
CRESTVIEW      CLOUDY    78  63  59 S12G26    29.86F                  
VALPARAISO     PTSUNNY   76  67  73 SE22      29.85F                  
MARY ESTHER    CLOUDY    76  68  76 E12       29.83F                  
PANAMA CITY    FAIR      79  65  62 SE20G29   29.87F                  
TYNDALL AFB    MOSUNNY   79  66  64 SE25      29.86F                  
APALACHICOLA   FAIR      77  65  66 SE13G23   29.92F                  

STATION/POSITION SKY/WX   TEMP    WIND        PRES    WAVE   SWELL
                          AIR SEA DIR/SP/G            HT/PER HT/PER
                          (F)     (DEG/KT/KT) (MB)    (FT/S) (FT/S)
30.1N   87.6W                                 1009.3F   4/ 6
29.2N   88.2W                     160/ 17/ 21 1008.0
PANAMA CITY BEAC           73 73  130/ 17/ 21 1011.9F
TOWER C          NOT AVBL

$$
FLZ011-016>038-118-127-128-134-139-239-182100-
NORTH FLORIDA
  
CITY           SKY/WX    TMP DP  RH WIND       PRES   REMARKS
MARIANNA       FAIR      84  59  42 S13       29.85F                  
TALLAHASSEE    FAIR      79  63  57 SE15      29.91F                  
PERRY          FAIR      83  57  40 S10G22    29.92F                  
LIVE OAK       MOSUNNY   86  59  39 VRB5G12   29.90F                  
CROSS CITY     FAIR      84  59  42 SW16      29.92F                  
LAKE CITY      FAIR      82  59  44 S8G18     29.92F                  
GAINESVILLE    FAIR      88  59  37 S14G22    29.95F                  
PALATKA        FAIR      86  61  42 S12G17    29.93F                  
MAYPORT NAS    FAIR      80  66  62 SE15G23   29.94F                  
JACKSONVILLE   PTSUNNY   84  58  40 S12       29.92F                  
JAX NAS        FAIR      86  57  37 S14       29.93F                  
JAX CECIL      PTSUNNY   88  59  37 S14       29.92F                  
FERNANDINA BEA PTSUNNY   78  68  71 SE15      29.95F                  
ST AUGUSTINE   FAIR      80  69  69 SE16      29.95F                  
PALM COAST     MOSUNNY   81  70  69 SE16      29.94F                  

STATION/POSITION SKY/WX   TEMP    WIND        PRES    WAVE   SWELL
                          AIR SEA DIR/SP/G            HT/PER HT/PER
                          (F)     (DEG/KT/KT) (MB)    (FT/S) (FT/S)
SHELL POINT      NOT AVBL
KEATON BEACH               76     160/ 12/ 14 1013.4F
CEDAR KEY                  76     140/  5/  6 1013.4F
FERNANDINA                 79 73  140/ 10/ 15 1014.9F
30.7N   81.3W                 72                N/A     3/ 5
MAYPORT                    77 71  140/ 10/ 20 1014.4F
31.4N   80.9W              71 70  150/  4/  6 1015.0F   3/ 5   2/ 5
ST AUGUSTINE               74 74  150/ 16/ 17 1014.0F

$$
FLZ040-043>046-052-053-057-058-063-144-182100-
INTERIOR CENTRAL FLORIDA
  
CITY           SKY/WX    TMP DP  RH WIND       PRES   REMARKS
OCALA          FAIR      87  59  38 S9G16     29.93F                  
LEESBURG       FAIR      87  60  40 S6        29.94F                  
SANFORD        FAIR      89  62  40 S15       29.93F                  
ORLANDO EXEC   FAIR      89  60  37 S12G17    29.93F                  
ORLANDO INTL   FAIR      89  61  38 VRB6      29.92F                  
KISSIMMEE      PTSUNNY   88  64  44 S9        29.93F                  
WINTER HAVEN   FAIR      90  64  42 S10       29.93F                  
LAKELAND       MOSUNNY   88  63  42 SW8       29.97S                  
BARTOW         PTSUNNY   90  64  43 S10       29.91F                  
SEBRING        FAIR      89  68  49 S14       29.94F                  
OKEECHOBEE     FAIR      86  68  54 SE13G18   29.94F                  

$$
FLZ041-047-054-059-064-141-147-182100-
EAST CENTRAL FLORIDA
  
CITY           SKY/WX    TMP DP  RH WIND       PRES   REMARKS
ORMOND BEACH   MOSUNNY   82  70  65 SE13      29.95F                  
DAYTONA BEACH  FAIR      81  72  74 E13G20    29.95F                  
DELAND         PTSUNNY   86  61  42 S12       29.93F                  
NEW SMYRNA BEA MOSUNNY   82  72  69 SE21      29.96F                  
JFK SPACE CTR  FAIR      83  70  65 S18G24    29.95F                  
TITUSVILLE     MOSUNNY   86  70  58 SE17G24   29.96F                  
PATRICK AFB    FAIR      82  74  75 SE17      29.95F                  
MELBOURNE      FAIR      84  70  62 SE17G35   29.95F                  
VERO BEACH     FAIR      85  70  60 SE24G31   29.96F                  
FT PIERCE      FAIR      84  69  60 SE24      29.96F                  

STATION/POSITION SKY/WX   TEMP    WIND        PRES    WAVE   SWELL
                          AIR SEA DIR/SP/G            HT/PER HT/PER
                          (F)     (DEG/KT/KT) (MB)    (FT/S) (FT/S)
28.5N   80.2W              78     140/ 16/ 17 1015.5F   3/ 8   2/ 8
28.9N   78.5W              76 77  120/ 17/ 21 1017.2F   4/ 6   2/ 8
TRIDENT PIER               82 78  130/  9/ 14 1016.3F
28.4N   80.5W                 78                N/A     3/ 4
27.5N   80.2W                 77                N/A     4/ 4

$$
FLZ050-056-061-142-242-148-248-149-249-151-251-155-255-
160-260-182100-
WEST CENTRAL FLORIDA
  
CITY           SKY/WX    TMP DP  RH WIND       PRES   REMARKS
CRYSTAL RIVER  FAIR      86  61  42 SW3       29.92F                  
INVERNESS      FAIR      90  61  37 S10G18    29.93F                  
BROOKSVILLE    FAIR      89  62  40 S13       29.93F                  
CLEARWATER AIR FAIR      86  61  42 SW12      29.92F                  
ST PETE CLEARW FAIR      87  61  41 S15       29.92F                  
TAMPA INTL     FAIR      87  64  46 S12       29.92F                  
TAMPA EXEC     FAIR      90  64  43 SW5       29.92F                  
PLANT CITY     FAIR      91  64  40 S9G20     29.94F                  
MACDILL AFB    FAIR      86  70  58 SW14      29.92F                  
PETER O KNIGHT PTSUNNY   90  66  45 SW10      29.92F                  
ST PETERSBURG  FAIR      82  66  58 SW14      29.90F                  
SARASOTA       FAIR      86  70  58 S15       29.91F                  
VENICE         FAIR      86  72  62 S17G23    29.93F                  

STATION/POSITION SKY/WX   TEMP    WIND        PRES    WAVE   SWELL
                          AIR SEA DIR/SP/G            HT/PER HT/PER
                          (F)     (DEG/KT/KT) (MB)    (FT/S) (FT/S)
27.3N   84.2W                 76                N/A     5/ 5
CLEARWATER BEACH           83 78  180/ 16/ 17 1013.4F
MIDDLE TAMPA BAY           83     220/ 12/ 13 1013.3F
VENICE                     79 78  170/ 16/ 19 1013.1F

$$
FLZ066-069-070-075>078-162-262-165-265-182100-
SOUTHWEST FLORIDA AND KEYS
  
CITY           SKY/WX    TMP DP  RH WIND       PRES   REMARKS
PUNTA GORDA    FAIR      89  63  41 W12       29.93F                  
FT MYERS       FAIR      86  71  60 S12G22    29.92F                  
SOUTHWEST INTL FAIR      86  71  60 SW16      29.92F                  
NAPLES         CLOUDY    86  75  69 S12       29.92F HX  95           
MARCO ISLAND   FAIR      86  72  62 S13G21    29.94F                  
IMMOKALEE      PTSUNNY   88  70  55 S8G17     29.90F                  
MARATHON       FAIR      89  72  56 SE10      29.93F HX  96           
KEY WEST NAS   FAIR      86  72  62 SE17      29.92F                  
KEY WEST INTL  FAIR      85  73  67 SE14      29.92F                  

STATION/POSITION SKY/WX   TEMP    WIND        PRES    WAVE   SWELL
                          AIR SEA DIR/SP/G            HT/PER HT/PER
                          (F)     (DEG/KT/KT) (MB)    (FT/S) (FT/S)
NAPLES                     82 81  160/ 14/ 17 1013.6F
DRY TORTUGAS               80     130/ 13/ 15 1012.9F
SAND KEY                   79                 1013.2F
SOMBRERO KEY               80                 1013.2F

$$
FLZ067-068-071>074-168-172>174-182100-
SOUTHEAST FLORIDA 
  
CITY           SKY/WX    TMP DP  RH WIND       PRES   REMARKS
W PALM BEACH   PTSUNNY   81  70  69 SE22      29.98F                  
BOCA RATON     MOSUNNY   88  72  58 SE12G21   29.98F                  
FT LAUDER-EXEC FAIR      86  67  52 SE16      29.96F                  
FT LAUDERDALE  FAIR      85  71  63 SE16      29.96F                  
POMPANO BEACH  FAIR      86  71  60 SE17      29.97F                  
PEMBROKE PINES FAIR      84  70  62 SE16G23   29.97F                  
OPA LOCKA      LGT RAIN  82  71  69 SE18      29.97F                  
MIAMI          PTSUNNY   83  70  64 SE17      29.96F                  
WEST KENDALL   CLOUDY    86  67  52 SE17G25   29.95F                  
HOMESTEAD      CLOUDY    84  70  62 SE10      29.94F                  

STATION/POSITION SKY/WX   TEMP    WIND        PRES    WAVE   SWELL
                          AIR SEA DIR/SP/G            HT/PER HT/PER
                          (F)     (DEG/KT/KT) (MB)    (FT/S) (FT/S)
PORT EVERGLADES            81     140/ 12/ 15 1015.3
VIRGINIA KEY               79 82  140/ 12/ 16 1014.3F
LAKE WORTH                 79 80  140/ 15/ 18 1016.4F
SETTLEMENT POINT           82     150/ 11/ 13 1015.7F

$$